This demonstration page uses our WeatherBlox Daily Observations layout. Learn more.

Left ArrowRight Arrow

36.19886, -115.1175

Hourly Observations for August 9, 2021

Temp ( °F °C ) Dew Point ( °F °C ) Humidity (%) Winds ( mph kmh ) Pressure ( in mb ) Visibility ( mi km ) Precip ( " mm )
12:53 am 00:53 Clear with Smoke 94 34.4 33 0.6 12 12 S 10 17 29.75 1008 10 16 0.00 0.00
1:53 am 01:53 Clear with Smoke 92 33.3 34 1.1 13 13 S 13 20 29.76 1008 10 16 0.00 0.00
2:53 am 02:53 Clear with Smoke 91 32.8 35 1.7 14 14 S 14 22 29.76 1008 10 16 0.00 0.00
3:53 am 03:53 Clear with Smoke 89 31.7 36 2.2 15 15 WSW 3 6 29.78 1008 10 16 0.00 0.00
4:53 am 04:53 Clear with Smoke 83 28.3 38 3.3 20 20 NW 6 9 29.79 1009 10 16 0.00 0.00
5:53 am 05:53 Clear with Smoke 82 27.8 38 3.3 21 21 Calm 29.81 1009 10 16 0.00 0.00
6:53 am 06:53 Sunny with Smoke 82 27.8 38 3.3 21 21 NW 7 11 29.83 1010 10 16 0.00 0.00
7:53 am 07:53 Sunny with Smoke 86 30 39 3.9 19 19 Calm 29.84 1011 10 16 0.00 0.00
8:53 am 08:53 Sunny with Smoke 91 32.8 38 3.3 15 15 Calm 29.84 1011 10 16 0.00 0.00
9:53 am 09:53 Sunny with Smoke 98 36.7 37 2.8 12 12 ESE 8 13 29.83 1010 10 16 0.00 0.00
10:53 am 10:53 Sunny with Smoke 101 38.3 34 1.1 10 10 SE 14 22 29.83 1010 10 16 0.00 0.00
11:53 am 11:53 Sunny with Smoke 104 40 32 0 8 8 SSW 17 28 29.80 1009 10 16 0.00 0.00
12:53 pm 12:53 Sunny with Smoke 104 40 30 -1.1 7 7 WSW 18 30 29.79 1009 10 16 0.00 0.00
1:53 pm 13:53 Sunny with Smoke 106 41.1 28 -2.2 6 6 SW 10 17 29.78 1008 10 16 0.00 0.00
2:53 pm 14:53 Sunny with Smoke 106 41.1 29 -1.7 7 7 SSW 16 26 29.75 1008 10 16 0.00 0.00
3:53 pm 15:53 Sunny with Smoke 107 41.7 29 -1.7 6 6 SW 15 24 29.74 1007 10 16 0.00 0.00
4:53 pm 16:53 Sunny with Smoke 106 41.1 30 -1.1 7 7 S 16 26 29.73 1007 10 16 0.00 0.00
5:53 pm 17:53 Sunny with Smoke 105 40.6 29 -1.7 7 7 S 16 26 29.72 1007 10 16 0.00 0.00
6:53 pm 18:53 Sunny with Smoke 104 40 27 -2.8 7 7 SW 12 19 29.73 1007 10 16 0.00 0.00
7:53 pm 19:53 Clear with Smoke 102 38.9 28 -2.2 7 7 SSW 7 11 29.75 1007 10 16 0.00 0.00
8:53 pm 20:53 Clear with Smoke 99 37.2 31 -0.6 9 9 S 8 13 29.76 1008 10 16 0.00 0.00
9:53 pm 21:53 Clear with Smoke 96 35.6 34 1.1 11 11 S 8 13 29.77 1008 10 16 0.00 0.00
10:53 pm 22:53 Clear with Smoke 95 35 34 1.1 12 12 N 7 11 29.78 1009 10 16 0.00 0.00
11:53 pm 23:53 Clear with Smoke 90 32.2 36 2.2 15 15 Calm 29.79 1009 10 16 0.00 0.00

Powered by AerisWeather